SES-5 (38652 NORAD) Tracking and Keplerian Element Data

This shows tracking and keplerian element data for the satellite.

Feedback or suggestion? Click here.




ElementValue
Catalog38652
NameSES-5
Epoch Orbit2211
Epoch Day202.720008
Epoch Year2018
RAAN239.2405
Inclination0.0406
Eccentricity0.0002129
Argument of Perigee236.2088
Mean Anonmoly88.1409
Mean Motion1.00273005
Decay Rate2E-07
L11 38652U 12036A 18202.72000800 .00000020 00000-0 00000+0 0 9997
L22 38652 0.0406 239.2405 0002129 236.2088 88.1409 1.00273005 22118

Live tracking and technical data element details for SES-5 (NORAD 38652). SES-5 can be tracked NOW for your location showing map with azimuth and elevation plus other details from your city location.

Track the satellite on the map from your city or location and see movement details for azimuth, elevation, latitude, longitude, range, height, and movement on the map or in text.







IsCatalogInMostPopularTable: catalog: 38652, numindb: 61
Update: records affected: 1



GetName: 38652 SES-5

Hit Count: updated at: Mon, 23 Jul 2018 07:46:35 GMT